Zurück zum Katalog

HAWK-13C

AktivMilitärSSO
NORAD 67393·PAYLOAD·🇺🇸 United States

Gestartet Jan 11, 2026 von Vandenberg Space Force Base

Loading…

Nächste Überflüge (nächste 24 Stunden)

TLE

AktuellSource: Space-Track

Epoche: Sep 13, 2026, 23:11 UTC

1 67393U 26004AG  26256.96648768  .00003482  00000-0  16593-3 0  9999
2 67393  97.4640 255.1674 0006490  41.8739 318.2991 15.19765264 37246

Verfolge HAWK-13C in Echtzeit mit AllMySat

Download on the App Store